DW0307 Weather Reports


time (UTC)temp
F
wind
direction
speed
knots
gust
knots
rain 1hr
in
rain 24hr
in
rain mn
in
humidity
%
barometer
mb
20181214223350 26 38 7.8 0.0 0.00 0.00 0.00 88 1013.2
20181214222338 26 32 8.7 0.0 0.00 0.00 0.00 88 1013.3
20181214221347 26 43 7.8 0.0 0.00 0.00 0.00 88 1013.3
20181214220337 26 40 7.8 0.0 0.00 0.00 0.00 88 1013.4
20181214215343 26 34 6.1 0.0 0.00 0.00 0.00 88 1013.5
20181214214350 26 48 6.1 0.0 0.00 0.00 0.00 88 1013.6
20181214213346 25 31 6.1 0.0 0.00 0.00 0.00 88 1013.5
20181214212337 25 40 6.1 0.0 0.00 0.00 0.00 88 1013.5
20181214211345 25 18 5.2 0.0 0.00 0.00 0.00 88 1013.5
20181214210337 25 59 4.3 0.0 0.00 0.00 0.00 88 1013.5
20181214205350 25 66 6.1 0.0 0.00 0.00 0.00 88 1013.6
20181214204339 25 24 6.1 0.0 0.00 0.00 0.00 88 1013.7
20181214203348 25 45 5.2 0.0 0.00 0.00 0.00 88 1013.7
20181214202340 25 44 6.1 0.0 0.00 0.00 0.00 88 1013.8
20181214201348 25 47 7.0 0.0 0.00 0.00 0.00 88 1013.9
20181214200340 25 44 6.1 0.0 0.00 0.00 0.00 88 1013.9
20181214195350 25 24 6.1 0.0 0.00 0.00 0.00 88 1013.8
20181214194342 25 42 5.2 0.0 0.00 0.00 0.00 88 1013.8
20181214193336 25 55 4.3 0.0 0.00 0.00 0.00 88 1013.8
20181214192342 25 10 6.1 0.0 0.00 0.00 0.00 88 1013.6
20181214191345 25 39 6.1 0.0 0.00 0.00 0.00 88 1013.6
20181214190338 25 38 6.1 0.0 0.00 0.00 0.00 88 1013.7
20181214185347 25 35 7.0 0.0 0.00 0.00 0.00 88 1013.9
20181214184339 25 51 4.3 0.0 0.00 0.00 0.00 88 1014.0
20181214183350 25 49 4.3 0.0 0.00 0.00 0.00 88 1013.9
20181214182337 25 82 4.3 0.0 0.00 0.00 0.00 88 1013.9
20181214181342 25 58 6.1 0.0 0.00 0.00 0.00 88 1013.9
20181214180352 25 34 5.2 0.0 0.00 0.00 0.00 88 1013.9
20181214175342 25 56 5.2 0.0 0.00 0.00 0.00 88 1013.9
20181214174349 25 40 7.0 0.0 0.00 0.00 0.00 87 1013.9
20181214173339 25 38 6.1 0.0 0.00 0.00 0.00 87 1013.9
20181214172349 25 44 5.2 0.0 0.00 0.00 0.00 88 1013.9
20181214171342 25 63 5.2 0.0 0.00 0.00 0.00 88 1013.9
20181214170333 25 44 7.8 0.0 0.00 0.00 0.00 88 1013.9
20181214165342 25 76 8.7 0.0 0.00 0.00 0.00 87 1013.9
20181214164353 25 50 7.8 0.0 0.00 0.00 0.00 87 1013.7
20181214163346 25 44 8.7 0.0 0.00 0.00 0.00 87 1013.8
20181214162336 25 30 4.3 0.0 0.00 0.00 0.00 87 1013.7
20181214161347 25 73 5.2 0.0 0.00 0.00 0.00 87 1013.7
20181214160340 25 50 6.1 0.0 0.00 0.00 0.00 87 1013.7
20181214155347 25 82 4.3 0.0 0.00 0.00 0.00 87 1013.8
20181214154336 25 58 5.2 0.0 0.00 0.00 0.00 87 1013.7
20181214153349 25 49 5.2 0.0 0.00 0.00 0.00 87 1013.7
20181214152337 25 38 6.1 0.0 0.00 0.00 0.00 87 1013.8
20181214151348 25 19 7.0 0.0 0.00 0.00 0.00 87 1013.7
20181214150353 25 53 5.2 0.0 0.00 0.00 0.00 87 1013.7
20181214145340 25 60 4.3 0.0 0.00 0.00 0.00 87 1013.7
20181214144352 25 98 4.3 0.0 0.00 0.00 0.00 87 1013.7
20181214143341 25 58 5.2 0.0 0.00 0.00 0.00 88 1013.7
20181214142345 25 33 4.3 0.0 0.00 0.00 0.00 88 1013.6
20181214141331 25 54 5.2 0.0 0.00 0.00 0.00 88 1013.5
20181214140347 25 31 6.1 0.0 0.00 0.00 0.00 88 1013.5
20181214135334 26 43 7.0 0.0 0.00 0.00 0.00 88 1013.3
20181214134345 26 29 6.1 0.0 0.00 0.00 0.00 88 1013.3
20181214133340 26 66 5.2 0.0 0.00 0.00 0.00 87 1013.3
20181214132349 26 22 4.3 0.0 0.00 0.00 0.00 88 1013.3
20181214131341 26 5 5.2 0.0 0.00 0.00 0.00 87 1013.3
20181214130332 26 24 4.3 0.0 0.00 0.00 0.00 87 1013.3
20181214125346 26 5 5.2 0.0 0.00 0.00 0.00 87 1013.1
20181214124334 26 32 5.2 0.0 0.00 0.00 0.00 87 1013.0
20181214123346 27 47 5.2 0.0 0.00 0.00 0.00 87 1013.0
20181214122349 27 51 5.2 0.0 0.00 0.00 0.00 87 1013.0
20181214121340 27 40 5.2 0.0 0.00 0.00 0.00 87 1013.1
20181214120350 27 30 6.1 0.0 0.00 0.00 0.00 87 1013.1
20181214115340 27 46 5.2 0.0 0.00 0.00 0.00 87 1013.1
20181214114333 27 9 4.3 0.0 0.00 0.00 0.00 87 1013.1
20181214113341 27 28 3.5 0.0 0.00 0.00 0.00 87 1013.1
20181214112352 27 96 3.5 0.0 0.00 0.00 0.00 87 1013.1
20181214111342 27 61 3.5 0.0 0.00 0.00 0.00 87 1013.1
20181214110332 27 63 4.3 0.0 0.00 0.00 0.00 87 1013.0
20181214105343 27 46 4.3 0.0 0.00 0.00 0.00 87 1013.0
20181214104351 27 79 4.3 0.0 0.00 0.00 0.00 87 1013.1
20181214103341 27 56 4.3 0.0 0.00 0.00 0.00 87 1013.0
20181214102333 27 29 4.3 0.0 0.00 0.00 0.00 87 1013.1
20181214101344 27 39 3.5 0.0 0.00 0.00 0.00 87 1013.1
20181214100335 27 69 4.3 0.0 0.00 0.00 0.00 87 1013.0
20181214095343 27 67 5.2 0.0 0.00 0.00 0.00 87 1013.0
20181214094336 27 71 3.5 0.0 0.00 0.00 0.00 87 1013.0
20181214093348 27 67 4.3 0.0 0.00 0.00 0.00 87 1012.9
20181214092338 27 74 3.5 0.0 0.00 0.00 0.00 87 1012.8
20181214091346 27 55 4.3 0.0 0.00 0.00 0.00 87 1012.8
20181214090338 27 73 4.3 0.0 0.00 0.00 0.00 87 1012.8
20181214085345 27 98 6.1 0.0 0.00 0.00 0.00 87 1012.8
20181214084334 27 73 5.2 0.0 0.00 0.00 0.00 87 1012.7
20181214083346 27 72 5.2 0.0 0.00 0.00 0.00 87 1012.8
20181214082334 27 54 6.1 0.0 0.00 0.00 0.00 87 1012.9
20181214081346 27 84 5.2 0.0 0.00 0.00 0.00 87 1012.8
20181214080332 27 74 4.3 0.0 0.00 0.00 0.00 87 1012.9
20181214075343 27 63 3.5 0.0 0.00 0.00 0.00 87 1013.0
20181214074333 27 53 4.3 0.0 0.00 0.00 0.00 87 1012.9
20181214073341 27 30 3.5 0.0 0.00 0.00 0.00 87 1012.9
20181214072348 27 59 3.5 0.0 0.00 0.00 0.00 87 1012.6
20181214071339 26 55 1.7 0.0 0.00 0.00 0.00 87 1012.6
20181214070352 26 98 0.0 0.0 0.00 0.00 0.00 87 1012.5
20181214065340 26 333 0.0 0.0 0.00 0.00 0.00 86 1012.6
20181214064352 26 303 0.0 0.0 0.00 0.00 0.00 86 1012.6
20181214063343 26 303 0.0 0.0 0.00 0.00 0.00 87 1012.6
20181214062349 26 303 0.0 0.0 0.00 0.00 0.00 87 1012.5
20181214061338 26 309 0.0 0.0 0.00 0.00 0.00 87 1012.5
20181214060350 26 309 0.0 0.0 0.00 0.00 0.00 87 1012.3
20181214055340 25 303 0.0 0.0 0.00 0.00 0.00 87 1012.6
20181214054349 26 307 0.0 0.0 0.00 0.00 0.00 87 1012.3
20181214053340 25 307 0.0 0.0 0.00 0.00 0.00 87 1012.2
20181214052353 25 307 0.0 0.0 0.00 0.00 0.00 86 1012.2
20181214051341 25 307 0.0 0.0 0.00 0.00 0.00 86 1012.1
20181214050350 25 307 0.0 0.0 0.00 0.00 0.00 86 1012.2
20181214045341 25 307 0.0 0.0 0.00 0.00 0.00 86 1012.2
20181214044332 25 307 0.0 0.0 0.00 0.00 0.00 86 1012.3
20181214043345 25 321 0.0 0.0 0.00 0.00 0.00 86 1012.4
20181214042352 25 355 0.0 0.0 0.00 0.00 0.00 86 1012.4
20181214041344 26 5 0.9 0.0 0.00 0.00 0.00 86 1012.2
20181214040353 26 351 0.0 0.0 0.00 0.00 0.00 86 1012.2
20181214035337 26 272 0.0 0.0 0.00 0.00 0.00 86 1012.4
20181214034346 26 272 0.0 0.0 0.00 0.00 0.00 86 1012.4
20181214033341 26 323 0.0 0.0 0.00 0.00 0.00 86 1012.4
20181214032352 26 323 0.0 0.0 0.00 0.00 0.00 86 1012.3
20181214031339 25 323 0.0 0.0 0.00 0.00 0.00 86 1011.6
20181214030345 25 271 0.9 0.0 0.00 0.00 0.00 85 1011.7
20181214025341 25 271 0.0 0.0 0.00 0.00 0.00 85 1012.4
20181214024350 25 271 1.7 0.0 0.00 0.00 0.00 85 1012.4
20181214023342 25 246 1.7 0.0 0.00 0.00 0.00 85 1012.5
20181214022336 25 293 0.0 0.0 0.00 0.00 0.00 85 1012.4
20181214021346 25 315 0.0 0.0 0.00 0.00 0.00 85 1012.4
20181214020334 25 315 0.0 0.0 0.00 0.00 0.00 85 1012.4
20181214015344 25 315 0.0 0.0 0.00 0.00 0.00 85 1011.9
20181214014336 25 315 0.0 0.0 0.00 0.00 0.00 85 1011.9
20181214013346 26 315 0.0 0.0 0.00 0.00 0.00 85 1012.7
20181214012335 26 315 0.0 0.0 0.00 0.00 0.00 86 1012.8
20181214011343 26 315 0.0 0.0 0.00 0.00 0.00 86 1012.8
20181214010337 26 280 0.0 0.0 0.00 0.00 0.00 86 1012.7
20181214005346 26 280 0.0 0.0 0.00 0.00 0.00 86 1012.5
20181214004352 26 280 0.0 0.0 0.00 0.00 0.00 86 1012.5
20181214003342 26 280 0.0 0.0 0.00 0.00 0.00 86 1012.5
20181214002347 25 280 1.7 0.0 0.00 0.00 0.00 86 1012.6
20181214001334 25 23 0.9 0.0 0.00 0.00 0.00 86 1012.7
20181214000344 25 327 0.0 0.0 0.00 0.00 0.00 87 1012.7
20181213235335 26 327 0.0 0.0 0.00 0.00 0.00 87 1012.6
20181213234343 26 327 0.0 0.0 0.00 0.00 0.00 87 1012.5
20181213233334 26 327 0.0 0.0 0.00 0.00 0.00 87 1012.3
20181213232340 26 327 1.7 0.0 0.00 0.00 0.00 87 1012.4
20181213231333 26 49 2.6 0.0 0.00 0.00 0.00 87 1012.3
20181213230342 26 265 1.7 0.0 0.00 0.00 0.00 87 1012.6
20181213225331 25 171 0.0 0.0 0.00 0.00 0.00 87 1012.6
20181213224340 25 205 0.9 0.0 0.00 0.00 0.00 87 1012.5